| time (UTC) | temp F | wind direction | speed MPH | gust MPH | rain 1hr in | rain 24hr in | rain mn in | humidity % | barometer mb |
| 20260505084902 | 42 | 302 | 2.0 | 4.0 | 0.00 | 0.00 | 0.00 | 61 | 1005.2 |
| 20260505083902 | 42 | 296 | 2.0 | 4.0 | 0.00 | 0.00 | 0.00 | 60 | 1005.2 |
| 20260505082902 | 42 | 282 | 0.0 | 2.0 | 0.00 | 0.00 | 0.00 | 60 | 1005.1 |
| 20260505081902 | 42 | 292 | 2.0 | 3.0 | 0.00 | 0.00 | 0.00 | 58 | 1004.9 |
| 20260505080932 | 42 | 282 | 2.0 | 3.0 | 0.00 | 0.00 | 0.00 | 58 | 1004.6 |
| 20260505075902 | 43 | 292 | 2.0 | 4.0 | 0.00 | 0.00 | 0.00 | 58 | 1004.4 |
| 20260505074902 | 43 | 282 | 3.0 | 8.0 | 0.00 | 0.00 | 0.00 | 57 | 1004.5 |
| 20260505073932 | 43 | 292 | 2.0 | 4.0 | 0.00 | 0.00 | 0.00 | 57 | 1004.4 |
| 20260505072902 | 43 | 304 | 4.0 | 11.0 | 0.00 | 0.00 | 0.00 | 57 | 1004.5 |
| 20260505071902 | 43 | 304 | 1.0 | 2.0 | 0.00 | 0.00 | 0.00 | 57 | 1004.4 |
| 20260505070902 | 44 | 289 | 1.0 | 2.0 | 0.00 | 0.00 | 0.00 | 56 | 1004.6 |
| 20260505065902 | 44 | 288 | 2.0 | 4.0 | 0.00 | 0.00 | 0.00 | 56 | 1004.5 |
| 20260505064902 | 44 | 274 | 2.0 | 3.0 | 0.00 | 0.00 | 0.00 | 55 | 1004.5 |
| 20260505062933 | 44 | 279 | 0.0 | 0.0 | 0.00 | 0.00 | 0.00 | 57 | 1004.6 |
| 20260505061902 | 45 | 270 | 1.0 | 2.0 | 0.00 | 0.00 | 0.00 | 55 | 1004.6 |
| 20260505060901 | 45 | 293 | 2.0 | 3.0 | 0.00 | 0.00 | 0.00 | 55 | 1004.7 |
| 20260505055902 | 45 | 282 | 2.0 | 4.0 | 0.00 | 0.00 | 0.00 | 56 | 1004.6 |
| 20260505054902 | 45 | 273 | 2.0 | 3.0 | 0.00 | 0.00 | 0.00 | 54 | 1004.6 |
| 20260505053903 | 46 | 271 | 2.0 | 3.0 | 0.00 | 0.00 | 0.00 | 55 | 1004.5 |
| 20260505052902 | 46 | 280 | 2.0 | 3.0 | 0.00 | 0.00 | 0.00 | 55 | 1004.3 |
| 20260505051901 | 46 | 282 | 2.0 | 3.0 | 0.00 | 0.00 | 0.00 | 56 | 1004.3 |
| 20260505050903 | 46 | 288 | 2.0 | 3.0 | 0.00 | 0.00 | 0.00 | 55 | 1004.2 |
| 20260505040902 | 46 | 275 | 0.0 | 0.0 | 0.00 | 0.00 | 0.00 | 57 | 1004.2 |
| 20260505035902 | 46 | 269 | 0.0 | 0.0 | 0.00 | 0.00 | 0.00 | 57 | 1004.1 |
| 20260505034902 | 46 | 259 | 0.0 | 0.0 | 0.00 | 0.00 | 0.00 | 56 | 1004.0 |
| 20260505033902 | 47 | 267 | 0.0 | 0.0 | 0.00 | 0.00 | 0.00 | 54 | 1004.0 |
| 20260505032902 | 47 | 259 | 0.0 | 0.0 | 0.00 | 0.00 | 0.00 | 53 | 1004.2 |
| 20260505031902 | 47 | 276 | 0.0 | 1.0 | 0.00 | 0.00 | 0.00 | 51 | 1004.1 |
| 20260505030902 | 47 | 263 | 0.0 | 0.0 | 0.00 | 0.00 | 0.00 | 51 | 1004.0 |
| 20260505025902 | 47 | 278 | 0.0 | 1.0 | 0.00 | 0.00 | 0.00 | 50 | 1004.0 |
| 20260505024902 | 47 | 272 | 1.0 | 2.0 | 0.00 | 0.00 | 0.00 | 51 | 1003.9 |
| 20260505023932 | 47 | 274 | 0.0 | 0.0 | 0.00 | 0.00 | 0.00 | 51 | 1003.8 |
| 20260505022902 | 48 | 293 | 0.0 | 1.0 | 0.00 | 0.00 | 0.00 | 48 | 1003.6 |
| 20260505021902 | 48 | 287 | 0.0 | 1.0 | 0.00 | 0.00 | 0.00 | 49 | 1003.5 |
| 20260505020932 | 48 | 266 | 2.0 | 3.0 | 0.00 | 0.00 | 0.00 | 48 | 1003.3 |
| 20260505015932 | 48 | 304 | 1.0 | 3.0 | 0.00 | 0.00 | 0.00 | 48 | 1003.2 |
| 20260505014902 | 48 | 306 | 2.0 | 3.0 | 0.00 | 0.00 | 0.00 | 47 | 1003.1 |
| 20260505013902 | 49 | 289 | 2.0 | 3.0 | 0.00 | 0.00 | 0.00 | 47 | 1002.9 |
| 20260505012902 | 49 | 313 | 3.0 | 8.0 | 0.00 | 0.00 | 0.00 | 47 | 1002.8 |
| 20260505011902 | 50 | 270 | 2.0 | 4.0 | 0.00 | 0.00 | 0.00 | 47 | 1002.5 |
| 20260505010902 | 50 | 294 | 4.0 | 9.0 | 0.00 | 0.00 | 0.00 | 48 | 1002.3 |
| 20260505005902 | 51 | 308 | 4.0 | 7.0 | 0.00 | 0.00 | 0.00 | 48 | 1002.0 |
| 20260505004932 | 51 | 290 | 4.0 | 9.0 | 0.00 | 0.00 | 0.00 | 46 | 1001.9 |
| 20260505003902 | 52 | 284 | 3.0 | 4.0 | 0.00 | 0.00 | 0.00 | 45 | 1001.6 |
| 20260505002902 | 52 | 287 | 2.0 | 4.0 | 0.00 | 0.00 | 0.00 | 46 | 1001.5 |
| 20260505001902 | 52 | 278 | 4.0 | 6.0 | 0.00 | 0.00 | 0.00 | 46 | 1001.3 |
| 20260505000902 | 53 | 277 | 2.0 | 4.0 | 0.00 | 0.00 | 0.00 | 46 | 1001.3 |
| 20260504235902 | 53 | 307 | 2.0 | 4.0 | 0.00 | 0.00 | 0.00 | 46 | 1001.1 |
| 20260504234903 | 53 | 283 | 2.0 | 4.0 | 0.00 | 0.00 | 0.00 | 45 | 1000.9 |
| 20260504233902 | 53 | 271 | 3.0 | 4.0 | 0.00 | 0.00 | 0.00 | 46 | 1000.8 |
| 20260504232901 | 54 | 283 | 3.0 | 5.0 | 0.00 | 0.00 | 0.00 | 44 | 1000.7 |
| 20260504231902 | 54 | 278 | 4.0 | 6.0 | 0.00 | 0.00 | 0.00 | 46 | 1000.6 |
| 20260504230902 | 54 | 289 | 2.0 | 3.0 | 0.00 | 0.00 | 0.00 | 46 | 1000.6 |
| 20260504224932 | 56 | 278 | 3.0 | 4.0 | 0.00 | 0.00 | 0.00 | 47 | 1000.3 |
| 20260504223902 | 56 | 294 | 4.0 | 14.0 | 0.00 | 0.00 | 0.00 | 44 | 1000.0 |
| 20260504222901 | 57 | 262 | 3.0 | 4.0 | 0.00 | 0.00 | 0.00 | 46 | 999.8 |
| 20260504221902 | 57 | 312 | 3.0 | 4.0 | 0.00 | 0.00 | 0.00 | 44 | 999.5 |
| 20260504220902 | 57 | 296 | 2.0 | 3.0 | 0.00 | 0.00 | 0.00 | 44 | 999.3 |
| 20260504215902 | 57 | 292 | 4.0 | 7.0 | 0.00 | 0.00 | 0.00 | 44 | 999.2 |
| 20260504214902 | 57 | 315 | 3.0 | 5.0 | 0.00 | 0.00 | 0.00 | 44 | 999.0 |
| 20260504213902 | 58 | 276 | 3.0 | 4.0 | 0.00 | 0.00 | 0.00 | 42 | 998.6 |
| 20260504212902 | 59 | 288 | 4.0 | 6.0 | 0.00 | 0.00 | 0.00 | 41 | 998.7 |
| 20260504211902 | 58 | 280 | 6.0 | 7.0 | 0.00 | 0.00 | 0.00 | 43 | 998.6 |
| 20260504210902 | 60 | 283 | 7.0 | 8.0 | 0.00 | 0.00 | 0.00 | 43 | 998.4 |
| 20260504205902 | 60 | 276 | 4.0 | 6.0 | 0.00 | 0.00 | 0.00 | 43 | 998.3 |
| 20260504204901 | 60 | 278 | 5.0 | 7.0 | 0.00 | 0.00 | 0.00 | 41 | 998.3 |
| 20260504203903 | 60 | 293 | 4.0 | 6.0 | 0.00 | 0.00 | 0.00 | 41 | 998.2 |
| 20260504202901 | 61 | 331 | 4.0 | 8.0 | 0.00 | 0.00 | 0.00 | 44 | 998.0 |
| 20260504201902 | 62 | 278 | 5.0 | 8.0 | 0.00 | 0.00 | 0.00 | 43 | 997.9 |
| 20260504200902 | 62 | 285 | 4.0 | 7.0 | 0.00 | 0.00 | 0.00 | 43 | 997.9 |
| 20260504195902 | 61 | 274 | 3.0 | 6.0 | 0.00 | 0.00 | 0.00 | 44 | 997.8 |
| 20260504194902 | 61 | 275 | 4.0 | 7.0 | 0.00 | 0.00 | 0.00 | 44 | 997.7 |
| 20260504193901 | 61 | 288 | 4.0 | 6.0 | 0.00 | 0.00 | 0.00 | 43 | 997.5 |
| 20260504192902 | 62 | 277 | 5.0 | 7.0 | 0.00 | 0.00 | 0.00 | 44 | 997.4 |
| 20260504191902 | 62 | 278 | 6.0 | 8.0 | 0.00 | 0.00 | 0.00 | 43 | 997.4 |
| 20260504190902 | 62 | 287 | 3.0 | 4.0 | 0.00 | 0.00 | 0.00 | 40 | 997.2 |
| 20260504185933 | 62 | 271 | 5.0 | 7.0 | 0.00 | 0.00 | 0.00 | 38 | 997.0 |
| 20260504184902 | 64 | 264 | 6.0 | 8.0 | 0.00 | 0.00 | 0.00 | 40 | 996.8 |
| 20260504183901 | 63 | 265 | 5.0 | 7.0 | 0.00 | 0.00 | 0.00 | 41 | 996.8 |
| 20260504182932 | 63 | 300 | 2.0 | 4.0 | 0.00 | 0.00 | 0.00 | 41 | 996.7 |
| 20260504181903 | 63 | 276 | 6.0 | 8.0 | 0.00 | 0.00 | 0.00 | 43 | 996.5 |
| 20260504180901 | 63 | 271 | 4.0 | 6.0 | 0.00 | 0.00 | 0.00 | 43 | 996.3 |
| 20260504175902 | 63 | 272 | 5.0 | 7.0 | 0.00 | 0.00 | 0.00 | 43 | 996.3 |
| 20260504174903 | 62 | 268 | 5.0 | 7.0 | 0.00 | 0.00 | 0.00 | 42 | 996.3 |
| 20260504173902 | 62 | 276 | 5.0 | 7.0 | 0.00 | 0.00 | 0.00 | 41 | 996.2 |
| 20260504172902 | 62 | 275 | 7.0 | 10.0 | 0.00 | 0.00 | 0.00 | 42 | 996.1 |
| 20260504171902 | 62 | 272 | 7.0 | 9.0 | 0.00 | 0.00 | 0.00 | 43 | 995.9 |
| 20260504170903 | 62 | 288 | 5.0 | 8.0 | 0.00 | 0.00 | 0.00 | 43 | 996.0 |
| 20260504150901 | 60 | 279 | 2.0 | 3.0 | 0.00 | 0.00 | 0.00 | 44 | 995.7 |
| 20260504140902 | 60 | 265 | 4.0 | 6.0 | 0.00 | 0.00 | 0.00 | 50 | 995.3 |